国际通讯卫星 605星 (INTELSAT 605 (IS-605))

导读 | 豆包AI

INTELSAT 605是国际通信卫星组织(ITSO)第六代国际通信卫星系列成员,于1991年8月14日成功发射。作为国际通信卫星组织打造的全球商用通信卫星,该卫星运行于地球静止轨道,主要提供跨洋洲际电话、电报传输、广播电视转播、数据通信服务,还支持出租转发器信道服务,为全球通信网络互联互通提供重要支撑,助力构建覆盖全球的卫星通信体系。

Basic Information
目录编号:
21653
目录名称:
INTELSAT 605
国际标识:
1991-055A
轨道中心:
EARTH
卫星名称:
国际通讯卫星 605星
卫星全名:
国际通讯卫星 605星 (INTELSAT 605 (IS-605))
卫星状态:
在轨 (已飞行12676 天)
发射日期:
1991-08-14 UTC
国别 :
(ITSO)
星等 :
--
Orbit Information
数据来源 国际轨道数据 AOE轨道数据
星历时间 2026-04-28T12:02:00+0800
17小时前
查看轨道信息
2026-04-26T11:00:00+0800
2天前
查看轨道信息
半长轴 42432.769km 42432.513km
偏心率 0.0001875 0.0001816
轨道倾角 13.521° 13.519°
近地点辐角 263.279° 269.577°
升交点赤经 17.908° 17.924°
平近点角 267.927° 251.084°
近地点 36046.675km 36046.67km
远地点 36062.589km 36062.082km
周期 1449.812分钟 1449.799分钟
每日圈数 0.993232 0.993241
Detailed Information
卫星平台:
Intelsat VA
平衡模式:
三轴稳定
覆盖范围:
全球
运营商:
国际卫星通信公司
运营商所在国:
美国
制造商(研发单位):
休斯公司
制造商所在国:
美国
使用方式:
暂无
Satellite Introduction
从1965年4月至1984年3月,国际通信卫星组织发射了5代、6种不同性能的卫星共计35颗,除6颗卫星因运载火箭和远地点发动机故障而发射失败外,其余29颗卫星均被送到了预定的静止轨道位置。1984年8月前后,国际通信卫星组织利用部署在大西洋、太平洋、印度洋上空的15颗国际通信卫星,为遍布世界各地170多个国家或地区提供电话、电传、电报、电视和数据传输等电信业务;该卫星已退役。
2D Orbit Map
3D Orbit Map
Orbit Altitude Analysis Chart
Orbit Inclination Analysis Chart
Orbit Comprehensive Analysis Chart
View Comprehensive Chart